| time (UTC) | temp F | wind direction | speed knots | gust knots | rain 1hr in | rain 24hr in | rain mn in | humidity % | barometer mb |
| 20260505041545 | 70 | 157 | 0.0 | 6.1 | 0.00 | 0.00 | 0.00 | 76 | 1003.4 |
| 20260505040045 | 70 | 96 | 0.0 | 2.6 | 0.00 | 0.00 | 0.00 | 75 | 1003.7 |
| 20260505034549 | 71 | 0 | 0.0 | 4.3 | 0.00 | 0.00 | 0.00 | 75 | 1003.7 |
| 20260505033042 | 71 | 0 | 0.0 | 5.2 | 0.00 | 0.00 | 0.00 | 74 | 1003.7 |
| 20260505031544 | 71 | 146 | 0.9 | 4.3 | 0.00 | 0.00 | 0.00 | 74 | 1003.6 |
| 20260505030041 | 71 | 165 | 0.0 | 1.7 | 0.00 | 0.00 | 0.00 | 74 | 1003.5 |
| 20260505024540 | 71 | 175 | 0.0 | 3.5 | 0.00 | 0.00 | 0.00 | 73 | 1003.3 |
| 20260505023047 | 70 | 0 | 0.0 | 0.9 | 0.00 | 0.00 | 0.00 | 73 | 1003.0 |
| 20260505021539 | 70 | 0 | 0.0 | 0.0 | 0.00 | 0.00 | 0.00 | 74 | 1002.8 |
| 20260505020036 | 70 | 0 | 0.0 | 0.0 | 0.00 | 0.00 | 0.00 | 73 | 1002.7 |
| 20260505014536 | 71 | 0 | 0.0 | 0.0 | 0.00 | 0.00 | 0.00 | 71 | 1002.5 |
| 20260505013041 | 72 | 0 | 0.0 | 0.0 | 0.00 | 0.00 | 0.00 | 69 | 1002.3 |
| 20260505011602 | 74 | 0 | 0.0 | 0.0 | 0.00 | 0.00 | 0.00 | 65 | 1002.1 |
| 20260505010043 | 76 | 0 | 0.0 | 0.0 | 0.00 | 0.00 | 0.00 | 61 | 1001.8 |
| 20260505004536 | 78 | 0 | 0.0 | 0.0 | 0.00 | 0.00 | 0.00 | 58 | 1001.6 |
| 20260505003034 | 79 | 0 | 0.0 | 0.9 | 0.00 | 0.00 | 0.00 | 57 | 1001.4 |
| 20260505001543 | 79 | 160 | 0.0 | 0.9 | 0.00 | 0.00 | 0.00 | 56 | 1001.4 |
| 20260505000058 | 80 | 0 | 0.0 | 2.6 | 0.00 | 0.00 | 0.00 | 55 | 1001.5 |
| 20260504234540 | 80 | 0 | 0.0 | 2.6 | 0.00 | 0.00 | 0.00 | 53 | 1001.4 |
| 20260504233045 | 81 | 146 | 0.9 | 4.3 | 0.00 | 0.00 | 0.00 | 51 | 1001.5 |
| 20260504231536 | 83 | 214 | 0.9 | 5.2 | 0.00 | 0.00 | 0.00 | 49 | 1001.5 |
| 20260504230035 | 84 | 120 | 1.7 | 5.2 | 0.00 | 0.00 | 0.00 | 48 | 1001.5 |
| 20260504224538 | 84 | 122 | 0.0 | 5.2 | 0.00 | 0.00 | 0.00 | 49 | 1001.5 |
| 20260504223034 | 84 | 239 | 1.7 | 3.5 | 0.00 | 0.00 | 0.00 | 48 | 1001.5 |
| 20260504221539 | 82 | 142 | 0.9 | 5.2 | 0.00 | 0.00 | 0.00 | 50 | 1001.6 |
| 20260504220036 | 81 | 0 | 0.9 | 5.2 | 0.00 | 0.00 | 0.00 | 51 | 1001.7 |
| 20260504214534 | 82 | 295 | 0.9 | 5.2 | 0.00 | 0.00 | 0.00 | 50 | 1001.9 |
| 20260504213037 | 81 | 180 | 0.9 | 3.5 | 0.00 | 0.00 | 0.00 | 51 | 1002.0 |
| 20260504211533 | 81 | 251 | 1.7 | 5.2 | 0.00 | 0.00 | 0.00 | 50 | 1002.1 |
| 20260504210037 | 82 | 235 | 1.7 | 7.0 | 0.00 | 0.00 | 0.00 | 48 | 1002.2 |
| 20260504204535 | 83 | 38 | 1.7 | 6.1 | 0.00 | 0.00 | 0.00 | 47 | 1002.3 |
| 20260504203036 | 84 | 211 | 0.9 | 4.3 | 0.00 | 0.00 | 0.00 | 48 | 1002.5 |
| 20260504201534 | 84 | 6 | 0.9 | 6.1 | 0.00 | 0.00 | 0.00 | 49 | 1002.3 |
| 20260504200035 | 83 | 72 | 1.7 | 6.1 | 0.00 | 0.00 | 0.00 | 49 | 1002.5 |
| 20260504194540 | 83 | 148 | 1.7 | 7.0 | 0.00 | 0.00 | 0.00 | 48 | 1002.6 |
| 20260504193036 | 83 | 252 | 1.7 | 7.0 | 0.00 | 0.00 | 0.00 | 48 | 1002.6 |
| 20260504191535 | 83 | 130 | 1.7 | 7.0 | 0.00 | 0.00 | 0.00 | 50 | 1002.7 |
| 20260504190037 | 82 | 0 | 1.7 | 7.0 | 0.00 | 0.00 | 0.00 | 49 | 1002.9 |
| 20260504184534 | 82 | 117 | 0.9 | 5.2 | 0.00 | 0.00 | 0.00 | 49 | 1002.9 |
| 20260504183041 | 81 | 231 | 0.9 | 6.1 | 0.00 | 0.00 | 0.00 | 50 | 1003.0 |
| 20260504181536 | 81 | 93 | 0.9 | 6.1 | 0.00 | 0.00 | 0.00 | 52 | 1003.1 |
| 20260504180035 | 81 | 169 | 0.9 | 5.2 | 0.00 | 0.00 | 0.00 | 51 | 1003.3 |
| 20260504174535 | 80 | 285 | 0.0 | 6.1 | 0.00 | 0.00 | 0.00 | 51 | 1003.4 |
| 20260504173041 | 79 | 85 | 1.7 | 8.7 | 0.00 | 0.00 | 0.00 | 53 | 1003.6 |
| 20260504171545 | 79 | 226 | 1.7 | 6.1 | 0.00 | 0.00 | 0.00 | 51 | 1003.4 |
| 20260504081541 | 65 | 75 | 0.9 | 4.3 | 0.00 | 0.00 | 0.00 | 60 | 1005.1 |
| 20260504044540 | 60 | 0 | 0.0 | 0.0 | 0.00 | 0.00 | 0.00 | 76 | 1007.4 |
| 20260504043048 | 61 | 0 | 0.0 | 0.0 | 0.00 | 0.00 | 0.00 | 73 | 1007.1 |